Location: *
(48.4333°N, 5.0333°W)
Time: 16:49:01
(UTC+00:00)

LilacSat-2 - Pass Details

Date: 01 November 2021
Orbit: 511 x 532 km, 97.5° (Epoch: 29 November)

Event Time Altitude Azimuth Distance (km) Brightness Sun altitude
Rises 05:56:36 0° 17° (NNE) 2,637 ? -12.0°
Reaches altitude 10° 05:58:45 10° 23° (NNE) 1,747 ? -11.6°
Maximum altitude 06:02:25 49° 100° (E) 674 ? -11.0°
Drops below altitude 10° 06:06:03 10° 176° (S) 1,739 ? -10.4°
Sets 06:08:11 0° 182° (S) 2,624 ? -10.1°
